Starlink 33946

operational
NORAD ID: 64034 Int'l Des: 2025-102 Owner: SPXS Country: US Constellation: starlink
LEOCIRCULAR

Starlink 33946について

説明を読み込み中...

リアルタイム位置

3D地球を読み込み中...

次回通過

高度履歴

Altitude vs Time

uPlot chart will show altitude changes over time

軌道要素

1 64034U 25102N 26095.59961432 .00004483 00000-0 38321-3 0 9997
2 64034 70.0027 46.5844 0003086 270.7080 89.3725 14.98337908 50031
Epoch: Apr 5, 2026 • Age: 7 hours

現在のステータス

高度 585.4 km
速度 7.57 km/s
衛星直下点 68.91°N, 36.02°W
打ち上げ日 May 16, 2025
運用期間 0.8 years
タイプ internet

技術仕様

分類 Payload
質量 575.00 kg
乾燥質量 530.00 kg
総質量 575.00 kg
長さ 0.30 m
直径 4.10 m
スパン 29.00 m
形状 Box + pan
製造者 SPXS
バスタイプ Starlink V2MO
フェーズステータス In Orbit
所有者/国 SPXS/US

大規模コンステレーション

Loading constellations...